FW3157 Weather Reports


time (UTC)temp
C
wind
direction
speed
KPH
gust
KPH
rain 1hr
cm
rain 24hr
cm
rain mn
cm
humidity
%
barometer
mb
20260503023513 10 93 1.6 6.4 0.00 0.00 0.00 77 1018.0
20260503023007 10 103 0.0 1.6 0.00 0.00 0.00 78 1017.9
20260503022502 10 103 0.0 3.2 0.00 0.00 0.00 77 1018.0
20260503022431 10 103 1.6 3.2 0.00 0.00 0.00 77 1017.9
20260503021713 10 103 1.6 3.2 0.00 0.00 0.00 76 1017.8
20260503020944 10 103 1.6 3.2 0.00 0.00 0.00 75 1017.9
20260503020437 10 103 1.6 4.8 0.00 0.00 0.00 74 1017.8
20260503015931 10 103 1.6 4.8 0.00 0.00 0.00 74 1017.6
20260503015425 10 103 1.6 4.8 0.00 0.00 0.00 75 1017.6
20260503015148 10 103 1.6 3.2 0.00 0.00 0.00 75 1017.7
20260503014414 10 103 1.6 6.4 0.00 0.00 0.00 75 1017.5
20260503013907 10 103 3.2 6.4 0.00 0.00 0.00 75 1017.6
20260503013402 10 103 3.2 6.4 0.00 0.00 0.00 75 1017.8
20260503012856 10 132 1.6 6.4 0.00 0.00 0.00 76 1017.8
20260503012349 10 92 0.0 3.2 0.00 0.00 0.00 76 1017.9
20260503011843 10 92 0.0 3.2 0.00 0.00 0.00 76 1017.9
20260503011338 10 92 1.6 4.8 0.00 0.00 0.00 76 1017.9
20260503010832 10 92 1.6 6.4 0.00 0.00 0.00 75 1017.9
20260503010326 10 93 1.6 6.4 0.00 0.00 0.00 74 1017.8
20260503005820 10 101 1.6 3.2 0.00 0.00 0.00 75 1017.8
20260503005757 10 101 1.6 4.8 0.00 0.00 0.00 74 1017.8
20260503004809 10 101 4.8 9.7 0.00 0.00 0.00 75 1017.9
20260503004302 10 105 4.8 9.7 0.00 0.00 0.00 76 1017.9
20260503003755 10 108 4.8 12.9 0.00 0.00 0.00 77 1017.9
20260503003250 10 94 6.4 12.9 0.00 0.00 0.00 76 1017.9
20260503002743 10 72 6.4 11.3 0.00 0.00 0.00 75 1018.0
20260503002238 10 115 6.4 9.7 0.00 0.00 0.00 74 1018.1
20260503001732 10 84 3.2 9.7 0.00 0.00 0.00 72 1018.1
20260503001226 11 141 3.2 8.0 0.00 0.00 0.00 71 1018.1
20260503000942 11 141 3.2 8.0 0.00 0.00 0.00 70 1018.1
20260503000214 11 99 4.8 9.7 0.00 0.00 0.00 67 1018.2
20260502235712 11 87 4.8 9.7 0.00 0.00 0.00 66 1018.4
20260502235202 11 76 3.2 9.7 0.00 0.00 0.00 66 1018.4
20260502234655 11 117 1.6 8.0 0.00 0.00 0.00 69 1018.4
20260502234150 11 140 1.6 8.0 0.00 0.00 0.00 70 1018.5
20260502233643 10 74 1.6 8.0 0.00 0.00 0.00 72 1018.5
20260502233137 10 103 3.2 6.4 0.00 0.00 0.00 72 1018.7
20260502232632 10 103 4.8 11.3 0.00 0.00 0.00 72 1018.7
20260502232126 10 76 4.8 11.3 0.00 0.00 0.00 71 1018.6
20260502231620 10 141 4.8 11.3 0.00 0.00 0.00 71 1018.7
20260502231114 10 68 4.8 12.9 0.00 0.00 0.00 71 1018.6
20260502230608 10 91 1.6 11.3 0.00 0.00 0.00 72 1018.6
20260502230108 10 94 3.2 8.0 0.00 0.00 0.00 73 1018.6
20260502225824 10 61 4.8 14.5 0.00 0.00 0.00 73 1018.8
20260502225103 10 20 6.4 16.1 0.00 0.00 0.00 73 1018.9
20260502224604 10 98 6.4 16.1 0.00 0.00 0.00 73 1019.0
20260502224104 10 59 8.0 16.1 0.00 0.00 0.00 73 1019.1
20260502223602 10 79 8.0 16.1 0.00 0.00 0.00 73 1019.1
20260502223321 10 89 9.7 24.1 0.00 0.00 0.00 74 1019.1
20260502222602 10 74 11.3 24.1 0.00 0.00 0.00 73 1019.3
20260502222101 10 66 9.7 19.3 0.00 0.00 0.00 74 1019.4
20260502221602 11 86 11.3 25.7 0.00 0.00 0.00 73 1019.6
20260502221101 11 13 9.7 25.7 0.00 0.00 0.00 72 1019.6
20260502220602 11 124 6.4 17.7 0.00 0.00 0.00 73 1019.7
20260502215602 11 359 8.0 16.1 0.00 0.00 0.00 72 1019.6
20260502215551 11 82 6.4 14.5 0.00 0.00 0.00 74 1019.6
20260502214820 11 79 6.4 14.5 0.00 0.00 0.00 75 1019.5
20260502214056 11 96 4.8 9.7 0.00 0.00 0.00 76 1019.4
20260502213550 11 88 1.6 9.7 0.00 0.00 0.00 76 1019.4
20260502213044 11 91 0.0 3.2 0.00 0.00 0.00 76 1019.3
20260502212757 11 91 0.0 1.6 0.00 0.00 0.00 76 1019.2
20260502212032 11 91 0.0 1.6 0.00 0.00 0.00 76 1019.2
20260502211743 11 91 1.6 6.4 0.00 0.00 0.00 75 1019.3
20260502211020 11 91 1.6 6.4 0.00 0.00 0.00 75 1019.4
20260502210514 11 113 3.2 6.4 0.00 0.00 0.00 75 1019.4
20260502210008 11 113 3.2 6.4 0.00 0.00 0.00 75 1019.4
20260502205501 11 90 3.2 8.0 0.00 0.00 0.15 75 1019.5
20260502205150 11 87 1.6 6.4 0.00 0.00 0.15 76 1019.5
20260502205032 11 88 3.2 8.0 0.00 0.00 0.15 75 1019.5
20260502204203 11 287 0.0 3.2 0.00 0.00 0.15 76 1019.6
20260502203438 11 287 0.0 3.2 0.00 0.00 0.15 76 1019.7
20260502202932 11 287 0.0 1.6 0.00 0.00 0.15 76 1019.8
20260502202425 11 287 0.0 1.6 0.00 0.00 0.15 76 1019.7
20260502201920 11 287 0.0 1.6 0.00 0.00 0.15 76 1019.8
20260502201414 11 287 0.0 3.2 0.00 0.00 0.15 76 1019.7
20260502200908 11 287 1.6 4.8 0.00 0.00 0.15 76 1019.9
20260502200408 11 287 3.2 6.4 0.00 0.00 0.15 76 1019.9
20260502195906 11 287 3.2 6.4 0.00 0.00 0.15 76 1019.9
20260502195629 11 276 3.2 6.4 0.00 0.00 0.15 77 1019.9
20260502194902 11 261 4.8 9.7 0.00 0.00 0.15 77 1019.8
20260502194402 11 305 4.8 9.7 0.00 0.00 0.15 76 1019.9
20260502193902 12 285 6.4 14.5 0.00 0.00 0.15 76 1020.0
20260502193359 12 298 4.8 14.5 0.00 0.00 0.15 74 1020.0
20260502192900 12 269 3.2 12.9 0.00 0.00 0.15 69 1020.1
20260502192400 12 98 1.6 4.8 0.00 0.00 0.15 70 1020.0
20260502192125 12 98 1.6 3.2 0.00 0.00 0.15 69 1019.8
20260502191359 12 98 1.6 4.8 0.00 0.00 0.15 69 1019.7
20260502190856 12 98 3.2 6.4 0.00 0.00 0.15 69 1019.7
20260502190354 12 98 1.6 6.4 0.00 0.00 0.15 69 1019.6
20260502185853 12 98 1.6 4.8 0.00 0.00 0.15 70 1019.5
20260502185354 12 98 3.2 6.4 0.00 0.00 0.15 70 1019.5
20260502184854 12 98 3.2 6.4 0.00 0.00 0.15 69 1019.5
20260502184618 12 94 1.6 6.4 0.00 0.00 0.15 68 1019.4
20260502183853 12 94 1.6 4.8 0.00 0.00 0.15 67 1019.4
20260502183347 12 94 3.2 4.8 0.00 0.00 0.15 67 1019.2
20260502182845 12 94 3.2 6.4 0.00 0.00 0.15 67 1019.2
20260502182346 12 113 3.2 6.4 0.00 0.00 0.15 66 1019.2
20260502181844 12 116 3.2 6.4 0.00 0.00 0.15 65 1019.0
20260502181342 12 110 1.6 6.4 0.00 0.00 0.15 64 1019.0
20260502180841 13 90 1.6 6.4 0.00 0.00 0.15 62 1018.8
20260502180342 13 111 1.6 6.4 0.00 0.00 0.15 60 1018.8
20260502170335 15 101 1.6 8.0 0.00 0.00 0.15 53 1019.0
20260502164332 14 129 1.6 4.8 0.00 0.00 0.15 50 1018.7
20260502163831 14 185 1.6 8.0 0.00 0.00 0.15 50 1018.6
20260502163331 14 153 3.2 9.7 0.00 0.00 0.15 50 1018.5
20260502162832 14 117 3.2 9.7 0.00 0.00 0.15 52 1018.5
20260502162331 14 166 3.2 11.3 0.00 0.00 0.15 53 1018.5
20260502161831 14 93 4.8 16.1 0.00 0.00 0.15 53 1018.4
20260502161332 14 65 6.4 16.1 0.00 0.00 0.15 53 1018.4
20260502160830 14 103 8.0 19.3 0.00 0.00 0.15 53 1018.4
20260502160329 14 110 6.4 19.3 0.00 0.00 0.15 54 1018.5
20260502152253 15 16 3.2 12.9 0.00 0.00 0.15 45 1018.6
20260502151747 15 33 4.8 11.3 0.00 0.00 0.15 46 1018.6
20260502151246 14 95 4.8 9.7 0.00 0.00 0.15 47 1018.5
20260502150746 14 101 8.0 29.0 0.00 0.00 0.15 54 1018.5
20260502150241 14 347 14.5 32.2 0.00 0.00 0.15 50 1018.8
20260502130659 16 232 4.8 11.3 0.00 0.00 0.15 44 1019.3
20260502130159 16 221 3.2 8.0 0.00 0.00 0.15 43 1019.3
20260502123658 15 267 6.4 12.9 0.00 0.00 0.15 45 1019.5
20260502123425 15 253 4.8 12.9 0.00 0.00 0.15 43 1019.6
20260502122657 16 204 6.4 12.9 0.00 0.00 0.15 43 1019.5
20260502122157 16 265 4.8 14.5 0.00 0.00 0.15 39 1019.6
20260502121916 16 260 4.8 12.9 0.00 0.00 0.15 42 1019.5
20260502121157 16 294 3.2 9.7 0.00 0.00 0.15 38 1019.7
20260502120922 16 269 3.2 9.7 0.00 0.00 0.15 38 1019.8
20260502120157 16 266 3.2 9.7 0.00 0.00 0.15 39 1019.8
20260502120145 16 219 1.6 9.7 0.00 0.00 0.15 39 1019.9
20260502115156 15 271 3.2 11.3 0.00 0.00 0.15 39 1020.0
20260502114651 15 296 4.8 11.3 0.00 0.00 0.15 39 1020.1
20260502114145 15 264 6.4 11.3 0.00 0.00 0.15 41 1020.1
20260502113639 15 319 8.0 16.1 0.00 0.00 0.15 41 1020.2
20260502113133 15 265 6.4 16.1 0.00 0.00 0.15 41 1020.3
20260502112633 15 310 6.4 12.9 0.00 0.00 0.15 41 1020.3
20260502112127 15 251 6.4 12.9 0.00 0.00 0.15 44 1020.4
20260502111855 15 306 6.4 4.8 0.00 0.00 0.15 44 1020.5
20260502101449 13 275 8.0 14.5 0.00 0.23 0.15 48 1021.1
20260502100949 13 260 8.0 16.1 0.00 0.23 0.15 49 1021.2
20260502100711 13 266 11.3 16.1 0.00 0.23 0.15 48 1021.2
20260502091358 13 256 6.4 12.9 0.00 0.23 0.15 49 1021.5
20260502090859 13 258 9.7 16.1 0.00 0.23 0.15 51 1021.5
20260502090609 13 278 9.7 19.3 0.00 0.23 0.15 50 1021.6
20260502070838 12 314 8.0 16.1 0.00 0.23 0.15 69 1022.5
20260502070339 12 290 6.4 16.1 0.00 0.23 0.15 68 1022.5
20260502065839 11 312 6.4 12.9 0.00 0.23 0.15 70 1022.5
20260502065339 11 282 6.4 14.5 0.00 0.23 0.15 70 1022.5
20260502064838 11 307 6.4 14.5 0.00 0.23 0.15 74 1022.5
20260502064339 11 288 4.8 11.3 0.00 0.23 0.15 75 1022.5
20260502063837 11 257 4.8 9.7 0.00 0.23 0.15 77 1022.6
20260502063556 11 296 4.8 11.3 0.00 0.23 0.15 78 1022.6
20260502062837 11 293 4.8 11.3 0.00 0.23 0.15 79 1022.6
20260502062337 11 321 6.4 12.9 0.00 0.23 0.15 80 1022.6
20260502061837 11 275 6.4 12.9 0.00 0.23 0.15 80 1022.6
20260502061601 11 291 6.4 11.3 0.00 0.23 0.15 80 1022.6
20260502060836 10 297 6.4 11.3 0.00 0.23 0.15 80 1022.7
20260502060336 10 311 6.4 11.3 0.00 0.23 0.15 80 1022.7
20260502055834 11 280 6.4 11.3 0.00 0.23 0.15 79 1022.6
20260502055334 10 321 4.8 11.3 0.00 0.23 0.15 78 1022.6
20260502054834 10 306 4.8 11.3 0.00 0.23 0.15 78 1022.7
20260502054335 10 304 4.8 11.3 0.00 0.23 0.15 78 1022.7
20260502053835 10 306 4.8 9.7 0.00 0.23 0.15 79 1022.7
20260502053334 10 309 4.8 9.7 0.00 0.23 0.15 80 1022.8
20260502052832 10 313 6.4 11.3 0.00 0.23 0.15 79 1022.8
20260502052332 10 304 6.4 11.3 0.00 0.23 0.15 79 1022.7
20260502051833 10 289 6.4 11.3 0.00 0.23 0.15 80 1022.7
20260502051332 10 297 6.4 11.3 0.00 0.23 0.15 80 1022.7
20260502050826 10 309 4.8 9.7 0.00 0.23 0.15 80 1022.7
20260502050546 10 281 4.8 9.7 0.00 0.23 0.15 80 1022.6
20260502045814 10 280 3.2 9.7 0.00 0.23 0.15 80 1022.6
20260502045308 10 310 4.8 8.0 0.00 0.23 0.15 80 1022.6
20260502044802 10 310 3.2 8.0 0.00 0.23 0.15 80 1022.5
20260502044255 10 283 3.2 6.4 0.00 0.23 0.15 77 1022.5
20260502044017 10 267 3.2 8.0 0.00 0.23 0.15 77 1022.5
20260502043244 10 312 1.6 8.0 0.00 0.23 0.15 77 1022.5
20260502042738 10 316 1.6 4.8 0.00 0.23 0.15 77 1022.5
20260502042454 10 316 3.2 8.0 0.00 0.23 0.15 77 1022.4
20260502041726 10 27 3.2 8.0 0.00 0.23 0.15 77 1022.3
20260502041219 10 13 3.2 9.7 0.00 0.23 0.15 78 1022.3
20260502040721 10 312 4.8 9.7 0.00 0.23 0.15 79 1022.3
20260502040207 9 46 3.2 11.3 0.00 0.23 0.15 81 1022.3
20260502035701 10 315 4.8 11.3 0.00 0.23 0.15 81 1022.2
20260502035155 10 335 6.4 12.9 0.00 0.23 0.15 81 1022.3
20260502034916 9 303 4.8 12.9 0.00 0.23 0.15 78 1022.2
20260502034143 9 304 3.2 8.0 0.00 0.23 0.15 75 1022.2
20260502033638 9 315 3.2 8.0 0.00 0.23 0.15 75 1022.1
20260502033131 9 96 1.6 4.8 0.00 0.23 0.15 76 1022.1
20260502032626 9 96 1.6 4.8 0.00 0.23 0.15 76 1022.0
20260502032119 9 96 1.6 3.2 0.00 0.23 0.15 76 1022.0
20260502031614 9 96 1.6 3.2 0.00 0.23 0.15 77 1022.0
20260502031108 9 96 1.6 3.2 0.00 0.23 0.15 77 1022.0
20260502030601 9 96 1.6 4.8 0.00 0.23 0.15 78 1022.0
20260502030055 9 96 1.6 4.8 0.00 0.23 0.15 78 1022.1
20260502025548 9 96 1.6 4.8 0.00 0.23 0.15 78 1022.1
20260502025042 9 98 1.6 4.8 0.00 0.23 0.15 79 1022.0
20260502024536 9 79 1.6 4.8 0.00 0.23 0.15 79 1022.0
20260502024029 9 51 1.6 3.2 0.00 0.23 0.15 79 1022.1